EROS C3 (54880 NORAD) Tracking and Keplerian Element Data

This shows tracking and keplerian element data for the satellite.

Feedback or suggestion? Click here.




ElementValue
Catalog54880
NameEROS C3
Epoch Orbit1312
Epoch Day85.19597755
Epoch Year2023
RAAN3.112
Inclination139.3568
Eccentricity0.0013504
Argument of Perigee187.4723
Mean Anonmoly271.1299
Mean Motion15.27384341
Decay Rate2.7E-06
L11 54880U 22179A 23085.19597755 .00000270 00000+0 00000+0 0 9999
L22 54880 139.3568 3.1120 0013504 187.4723 271.1299 15.27384341 13120



Live tracking and technical data element details for EROS C3 (NORAD 54880). EROS C3 can be tracked NOW for your location showing map with azimuth and elevation plus other details from your city location.







IsCatalogInMostPopularTable: catalog: 54880, numindb: 8
Update: records affected: 1



GetName: 54880 EROS C3

Hit Count: updated at: Mon, 27 Mar 2023 07:53:46 GMT